| time (UTC) | temp F | wind direction | speed MPH | gust MPH | rain 1hr in | rain 24hr in | rain mn in | humidity % | barometer mb |
| 20260510230603 | 81 | 132 | 0.0 | 1.0 | 0.00 | 0.00 | 0.00 | 47 | 1014.4 |
| 20260510230104 | 81 | 132 | 1.0 | 2.0 | 0.00 | 0.00 | 0.00 | 46 | 1014.4 |
| 20260510225603 | 81 | 134 | 0.0 | 2.0 | 0.00 | 0.00 | 0.00 | 48 | 1014.3 |
| 20260510225104 | 81 | 134 | 1.0 | 2.0 | 0.00 | 0.00 | 0.00 | 47 | 1014.4 |
| 20260510224603 | 81 | 134 | 1.0 | 3.0 | 0.00 | 0.00 | 0.00 | 47 | 1014.5 |
| 20260510223604 | 81 | 135 | 1.0 | 3.0 | 0.00 | 0.00 | 0.00 | 44 | 1014.4 |
| 20260510223104 | 82 | 145 | 1.0 | 3.0 | 0.00 | 0.00 | 0.00 | 45 | 1014.5 |
| 20260510222603 | 82 | 146 | 0.0 | 1.0 | 0.00 | 0.00 | 0.00 | 46 | 1014.6 |
| 20260510222104 | 82 | 146 | 0.0 | 1.0 | 0.00 | 0.00 | 0.00 | 44 | 1014.6 |
| 20260510221604 | 82 | 146 | 0.0 | 0.0 | 0.00 | 0.00 | 0.00 | 46 | 1014.5 |
| 20260510221103 | 82 | 146 | 1.0 | 2.0 | 0.00 | 0.00 | 0.00 | 44 | 1014.5 |
| 20260510220603 | 82 | 146 | 0.0 | 1.0 | 0.00 | 0.00 | 0.00 | 43 | 1014.6 |
| 20260510220104 | 83 | 146 | 0.0 | 2.0 | 0.00 | 0.00 | 0.00 | 43 | 1014.6 |
| 20260510215603 | 83 | 146 | 0.0 | 2.0 | 0.00 | 0.00 | 0.00 | 44 | 1014.6 |
| 20260510215103 | 83 | 146 | 0.0 | 1.0 | 0.00 | 0.00 | 0.00 | 44 | 1014.7 |
| 20260510214604 | 84 | 147 | 0.0 | 2.0 | 0.00 | 0.00 | 0.00 | 43 | 1014.7 |
| 20260510213603 | 84 | 142 | 1.0 | 2.0 | 0.00 | 0.00 | 0.00 | 39 | 1014.8 |
| 20260510213104 | 84 | 144 | 1.0 | 3.0 | 0.00 | 0.00 | 0.00 | 42 | 1014.8 |
| 20260510212103 | 84 | 165 | 0.0 | 2.0 | 0.00 | 0.00 | 0.00 | 48 | 1014.8 |
| 20260510210603 | 83 | 159 | 1.0 | 2.0 | 0.00 | 0.00 | 0.00 | 43 | 1014.8 |
| 20260510205602 | 82 | 286 | 0.0 | 1.0 | 0.00 | 0.00 | 0.00 | 47 | 1014.8 |
| 20260510205103 | 82 | 286 | 0.0 | 1.0 | 0.00 | 0.00 | 0.00 | 45 | 1014.8 |
| 20260510204602 | 82 | 287 | 1.0 | 2.0 | 0.00 | 0.00 | 0.00 | 47 | 1014.9 |
| 20260510204103 | 81 | 286 | 1.0 | 2.0 | 0.00 | 0.00 | 0.00 | 50 | 1015.0 |
| 20260510203602 | 79 | 292 | 0.0 | 0.0 | 0.00 | 0.00 | 0.00 | 51 | 1015.1 |
| 20260510203102 | 79 | 292 | 1.0 | 2.0 | 0.00 | 0.00 | 0.00 | 47 | 1015.1 |
| 20260510202603 | 79 | 291 | 0.0 | 1.0 | 0.00 | 0.00 | 0.00 | 51 | 1015.2 |
| 20260510202103 | 79 | 291 | 1.0 | 2.0 | 0.00 | 0.00 | 0.00 | 50 | 1015.3 |
| 20260510201602 | 79 | 291 | 0.0 | 1.0 | 0.00 | 0.00 | 0.00 | 53 | 1015.4 |
| 20260510201102 | 79 | 291 | 0.0 | 1.0 | 0.00 | 0.00 | 0.00 | 50 | 1015.4 |
| 20260510200603 | 79 | 291 | 1.0 | 3.0 | 0.00 | 0.00 | 0.00 | 49 | 1015.5 |
| 20260510195603 | 79 | 293 | 1.0 | 3.0 | 0.00 | 0.00 | 0.00 | 48 | 1015.4 |
| 20260510195103 | 80 | 333 | 1.0 | 3.0 | 0.00 | 0.00 | 0.00 | 47 | 1015.4 |
| 20260510194603 | 81 | 333 | 1.0 | 3.0 | 0.00 | 0.00 | 0.00 | 45 | 1015.5 |
| 20260510193603 | 81 | 337 | 1.0 | 2.0 | 0.00 | 0.00 | 0.00 | 48 | 1015.5 |
| 20260510193102 | 81 | 321 | 0.0 | 1.0 | 0.00 | 0.00 | 0.00 | 46 | 1015.5 |
| 20260510192603 | 81 | 337 | 1.0 | 2.0 | 0.00 | 0.00 | 0.00 | 50 | 1015.5 |
| 20260510192102 | 81 | 338 | 1.0 | 3.0 | 0.00 | 0.00 | 0.00 | 45 | 1015.5 |
| 20260510191603 | 81 | 342 | 2.0 | 3.0 | 0.00 | 0.00 | 0.00 | 46 | 1015.6 |
| 20260510191103 | 81 | 354 | 1.0 | 3.0 | 0.00 | 0.00 | 0.00 | 52 | 1015.6 |
| 20260510190103 | 81 | 70 | 1.0 | 3.0 | 0.00 | 0.00 | 0.00 | 51 | 1015.8 |
| 20260510185602 | 81 | 154 | 1.0 | 3.0 | 0.00 | 0.00 | 0.00 | 51 | 1015.8 |
| 20260510184103 | 80 | 246 | 1.0 | 3.0 | 0.00 | 0.00 | 0.00 | 51 | 1015.8 |
| 20260510183603 | 80 | 93 | 1.0 | 2.0 | 0.00 | 0.00 | 0.00 | 52 | 1015.9 |
| 20260510183103 | 80 | 109 | 1.0 | 3.0 | 0.00 | 0.00 | 0.00 | 54 | 1016.0 |
| 20260510182603 | 79 | 104 | 1.0 | 3.0 | 0.00 | 0.00 | 0.00 | 56 | 1016.1 |
| 20260510182103 | 78 | 237 | 1.0 | 3.0 | 0.00 | 0.00 | 0.00 | 58 | 1016.0 |
| 20260510181603 | 78 | 198 | 0.0 | 2.0 | 0.00 | 0.00 | 0.00 | 58 | 1016.2 |
| 20260510181103 | 78 | 105 | 1.0 | 2.0 | 0.00 | 0.00 | 0.00 | 54 | 1016.2 |
| 20260510175602 | 79 | 104 | 0.0 | 3.0 | 0.00 | 0.00 | 0.00 | 51 | 1016.3 |
| 20260510175103 | 78 | 112 | 1.0 | 3.0 | 0.00 | 0.00 | 0.00 | 52 | 1016.3 |
| 20260510174603 | 78 | 287 | 0.0 | 1.0 | 0.00 | 0.00 | 0.00 | 54 | 1016.3 |
| 20260510174102 | 79 | 287 | 2.0 | 3.0 | 0.00 | 0.00 | 0.00 | 52 | 1016.4 |
| 20260510173103 | 80 | 273 | 1.0 | 3.0 | 0.00 | 0.00 | 0.00 | 55 | 1016.4 |
| 20260510172602 | 79 | 271 | 1.0 | 3.0 | 0.00 | 0.00 | 0.00 | 55 | 1016.5 |
| 20260510171603 | 77 | 218 | 1.0 | 2.0 | 0.00 | 0.00 | 0.00 | 57 | 1016.4 |
| 20260510171102 | 76 | 218 | 1.0 | 2.0 | 0.00 | 0.00 | 0.00 | 61 | 1016.5 |
| 20260510170104 | 76 | 218 | 1.0 | 3.0 | 0.00 | 0.00 | 0.00 | 64 | 1016.6 |
| 20260510165602 | 76 | 213 | 1.0 | 3.0 | 0.00 | 0.00 | 0.00 | 64 | 1016.7 |
| 20260510165104 | 77 | 191 | 1.0 | 2.0 | 0.00 | 0.00 | 0.00 | 63 | 1016.7 |
| 20260510164603 | 78 | 185 | 1.0 | 2.0 | 0.00 | 0.00 | 0.00 | 63 | 1016.8 |
| 20260510164103 | 77 | 176 | 1.0 | 3.0 | 0.00 | 0.00 | 0.00 | 68 | 1016.9 |
| 20260510163103 | 76 | 273 | 1.0 | 3.0 | 0.00 | 0.00 | 0.00 | 71 | 1017.0 |
| 20260510162103 | 76 | 292 | 1.0 | 3.0 | 0.00 | 0.00 | 0.00 | 70 | 1016.8 |
| 20260510161603 | 76 | 348 | 1.0 | 3.0 | 0.00 | 0.00 | 0.00 | 74 | 1016.8 |
| 20260510161102 | 75 | 254 | 1.0 | 3.0 | 0.00 | 0.00 | 0.00 | 73 | 1016.9 |
| 20260510160602 | 75 | 256 | 1.0 | 3.0 | 0.00 | 0.00 | 0.00 | 74 | 1016.8 |
| 20260510160104 | 75 | 254 | 1.0 | 3.0 | 0.00 | 0.00 | 0.00 | 74 | 1016.8 |
| 20260510155603 | 74 | 245 | 1.0 | 2.0 | 0.00 | 0.00 | 0.00 | 76 | 1016.8 |
| 20260510155103 | 74 | 244 | 0.0 | 2.0 | 0.00 | 0.00 | 0.00 | 78 | 1016.7 |
| 20260510154102 | 73 | 241 | 0.0 | 3.0 | 0.00 | 0.00 | 0.00 | 78 | 1016.7 |
| 20260510153602 | 73 | 234 | 1.0 | 2.0 | 0.00 | 0.00 | 0.00 | 79 | 1016.7 |
| 20260510153102 | 73 | 234 | 1.0 | 2.0 | 0.00 | 0.00 | 0.00 | 77 | 1016.7 |
| 20260510152603 | 72 | 230 | 0.0 | 2.0 | 0.00 | 0.00 | 0.00 | 81 | 1016.7 |
| 20260510152103 | 72 | 230 | 1.0 | 2.0 | 0.00 | 0.00 | 0.00 | 82 | 1016.7 |
| 20260510151604 | 71 | 221 | 1.0 | 2.0 | 0.00 | 0.00 | 0.00 | 82 | 1016.6 |
| 20260510151103 | 71 | 213 | 0.0 | 2.0 | 0.00 | 0.00 | 0.00 | 82 | 1016.8 |
| 20260510150603 | 70 | 213 | 0.0 | 1.0 | 0.00 | 0.00 | 0.00 | 84 | 1016.8 |
| 20260510145603 | 69 | 210 | 1.0 | 3.0 | 0.00 | 0.00 | 0.00 | 86 | 1016.8 |
| 20260510145102 | 69 | 188 | 0.0 | 2.0 | 0.00 | 0.00 | 0.00 | 88 | 1016.8 |
| 20260510144102 | 68 | 187 | 1.0 | 2.0 | 0.00 | 0.00 | 0.00 | 89 | 1016.9 |
| 20260510143103 | 67 | 178 | 0.0 | 1.0 | 0.00 | 0.00 | 0.00 | 92 | 1016.9 |
| 20260510142602 | 66 | 149 | 0.0 | 2.0 | 0.00 | 0.00 | 0.00 | 92 | 1016.9 |
| 20260510141603 | 65 | 134 | 0.0 | 3.0 | 0.00 | 0.00 | 0.00 | 94 | 1016.9 |
| 20260510141103 | 65 | 167 | 1.0 | 3.0 | 0.00 | 0.00 | 0.00 | 95 | 1017.0 |
| 20260510140603 | 64 | 168 | 2.0 | 3.0 | 0.00 | 0.00 | 0.00 | 95 | 1017.1 |
| 20260510135604 | 64 | 171 | 1.0 | 2.0 | 0.00 | 0.00 | 0.00 | 96 | 1016.9 |
| 20260510134103 | 63 | 176 | 1.0 | 3.0 | 0.00 | 0.00 | 0.00 | 96 | 1016.9 |
| 20260510133603 | 63 | 180 | 1.0 | 3.0 | 0.00 | 0.00 | 0.00 | 96 | 1016.8 |
| 20260510133103 | 63 | 191 | 0.0 | 0.0 | 0.00 | 0.00 | 0.00 | 96 | 1016.8 |
| 20260510132602 | 63 | 193 | 0.0 | 0.0 | 0.00 | 0.00 | 0.00 | 96 | 1016.7 |
| 20260510132102 | 63 | 193 | 0.0 | 0.0 | 0.00 | 0.00 | 0.00 | 96 | 1016.7 |
| 20260510130604 | 63 | 189 | 0.0 | 0.0 | 0.00 | 0.00 | 0.00 | 96 | 1016.7 |
| 20260510125602 | 62 | 189 | 0.0 | 0.0 | 0.00 | 0.00 | 0.00 | 96 | 1016.5 |
| 20260510125102 | 62 | 189 | 0.0 | 0.0 | 0.00 | 0.00 | 0.00 | 96 | 1016.3 |
| 20260510124603 | 62 | 189 | 0.0 | 0.0 | 0.00 | 0.00 | 0.00 | 96 | 1016.2 |
| 20260510124103 | 62 | 189 | 0.0 | 0.0 | 0.00 | 0.00 | 0.00 | 97 | 1016.2 |
| 20260510123603 | 62 | 189 | 0.0 | 0.0 | 0.00 | 0.00 | 0.00 | 97 | 1016.0 |
| 20260510123103 | 62 | 189 | 0.0 | 0.0 | 0.00 | 0.00 | 0.00 | 97 | 1016.0 |
| 20260510122603 | 62 | 189 | 0.0 | 0.0 | 0.00 | 0.00 | 0.00 | 96 | 1016.0 |
| 20260510122103 | 62 | 189 | 0.0 | 0.0 | 0.00 | 0.00 | 0.00 | 97 | 1016.1 |
| 20260510121603 | 61 | 189 | 0.0 | 0.0 | 0.00 | 0.00 | 0.00 | 97 | 1016.1 |
| 20260510121102 | 61 | 189 | 0.0 | 0.0 | 0.00 | 0.00 | 0.00 | 96 | 1016.1 |
| 20260510120602 | 61 | 189 | 0.0 | 0.0 | 0.00 | 0.00 | 0.00 | 97 | 1016.0 |
| 20260510120103 | 61 | 189 | 0.0 | 0.0 | 0.00 | 0.00 | 0.00 | 97 | 1015.9 |
| 20260510115603 | 60 | 189 | 0.0 | 0.0 | 0.00 | 0.00 | 0.00 | 96 | 1015.7 |
| 20260510115103 | 60 | 189 | 0.0 | 0.0 | 0.00 | 0.00 | 0.00 | 96 | 1015.8 |
| 20260510114602 | 60 | 189 | 0.0 | 0.0 | 0.00 | 0.00 | 0.00 | 96 | 1015.7 |
| 20260510113603 | 60 | 189 | 0.0 | 0.0 | 0.00 | 0.00 | 0.00 | 96 | 1015.6 |
| 20260510112603 | 59 | 189 | 0.0 | 0.0 | 0.00 | 0.00 | 0.00 | 96 | 1015.3 |
| 20260510112102 | 59 | 189 | 0.0 | 0.0 | 0.00 | 0.00 | 0.00 | 96 | 1015.2 |
| 20260510111603 | 59 | 189 | 0.0 | 0.0 | 0.00 | 0.00 | 0.00 | 96 | 1015.2 |
| 20260510111103 | 59 | 189 | 0.0 | 0.0 | 0.00 | 0.00 | 0.00 | 96 | 1015.1 |
| 20260510110603 | 59 | 189 | 0.0 | 0.0 | 0.00 | 0.00 | 0.00 | 96 | 1015.1 |
| 20260510110104 | 58 | 189 | 0.0 | 0.0 | 0.00 | 0.00 | 0.00 | 96 | 1014.9 |
| 20260510105603 | 58 | 189 | 0.0 | 0.0 | 0.00 | 0.00 | 0.00 | 96 | 1014.9 |
| 20260510105103 | 58 | 189 | 0.0 | 0.0 | 0.00 | 0.00 | 0.00 | 96 | 1014.8 |
| 20260510104603 | 58 | 189 | 0.0 | 0.0 | 0.00 | 0.00 | 0.00 | 96 | 1014.7 |
| 20260510103602 | 58 | 189 | 0.0 | 0.0 | 0.00 | 0.00 | 0.00 | 96 | 1014.5 |
| 20260510103103 | 58 | 189 | 0.0 | 0.0 | 0.00 | 0.00 | 0.00 | 96 | 1014.5 |
| 20260510102603 | 57 | 189 | 0.0 | 0.0 | 0.00 | 0.00 | 0.00 | 96 | 1014.4 |
| 20260510102103 | 57 | 189 | 0.0 | 0.0 | 0.00 | 0.00 | 0.00 | 96 | 1014.3 |
| 20260510101603 | 57 | 189 | 0.0 | 0.0 | 0.00 | 0.00 | 0.00 | 96 | 1014.3 |
| 20260510095603 | 57 | 189 | 0.0 | 0.0 | 0.00 | 0.00 | 0.00 | 95 | 1014.3 |
| 20260510095103 | 57 | 189 | 0.0 | 0.0 | 0.00 | 0.00 | 0.00 | 95 | 1014.3 |
| 20260510094603 | 57 | 189 | 0.0 | 0.0 | 0.00 | 0.00 | 0.00 | 95 | 1014.2 |
| 20260510093104 | 57 | 189 | 0.0 | 0.0 | 0.00 | 0.00 | 0.00 | 95 | 1014.2 |
| 20260510092603 | 57 | 189 | 0.0 | 0.0 | 0.00 | 0.00 | 0.00 | 95 | 1014.2 |
| 20260510092104 | 57 | 189 | 0.0 | 0.0 | 0.00 | 0.00 | 0.00 | 95 | 1014.3 |
| 20260510091602 | 57 | 189 | 0.0 | 0.0 | 0.00 | 0.00 | 0.00 | 95 | 1014.3 |
| 20260510091103 | 57 | 189 | 0.0 | 0.0 | 0.00 | 0.00 | 0.00 | 95 | 1014.2 |
| 20260510085603 | 57 | 189 | 0.0 | 0.0 | 0.00 | 0.00 | 0.00 | 95 | 1014.0 |
| 20260510084604 | 57 | 189 | 0.0 | 0.0 | 0.00 | 0.00 | 0.00 | 95 | 1013.9 |
| 20260510084103 | 57 | 189 | 0.0 | 0.0 | 0.00 | 0.00 | 0.00 | 95 | 1013.8 |
| 20260510083603 | 57 | 189 | 0.0 | 0.0 | 0.00 | 0.00 | 0.00 | 94 | 1013.8 |
| 20260510082103 | 58 | 189 | 0.0 | 0.0 | 0.00 | 0.00 | 0.00 | 95 | 1013.5 |
| 20260510081603 | 58 | 189 | 0.0 | 0.0 | 0.00 | 0.00 | 0.00 | 95 | 1013.4 |
| 20260510081103 | 58 | 189 | 0.0 | 0.0 | 0.00 | 0.00 | 0.00 | 95 | 1013.3 |
| 20260510080603 | 58 | 189 | 0.0 | 0.0 | 0.00 | 0.00 | 0.00 | 94 | 1013.2 |
| 20260510080103 | 58 | 189 | 0.0 | 0.0 | 0.00 | 0.00 | 0.00 | 94 | 1013.2 |
| 20260510074103 | 58 | 189 | 0.0 | 0.0 | 0.00 | 0.00 | 0.00 | 94 | 1013.0 |
| 20260510073603 | 59 | 189 | 0.0 | 0.0 | 0.00 | 0.00 | 0.00 | 94 | 1013.0 |
| 20260510073103 | 59 | 189 | 0.0 | 0.0 | 0.00 | 0.00 | 0.00 | 94 | 1013.0 |
| 20260510072103 | 59 | 189 | 0.0 | 0.0 | 0.00 | 0.00 | 0.00 | 94 | 1013.0 |
| 20260510071103 | 59 | 189 | 0.0 | 0.0 | 0.00 | 0.00 | 0.00 | 94 | 1013.0 |
| 20260510070603 | 59 | 189 | 0.0 | 0.0 | 0.00 | 0.00 | 0.00 | 94 | 1013.0 |
| 20260510070103 | 59 | 189 | 0.0 | 0.0 | 0.00 | 0.00 | 0.00 | 94 | 1013.0 |
| 20260510065103 | 59 | 189 | 0.0 | 0.0 | 0.00 | 0.00 | 0.00 | 94 | 1013.0 |
| 20260510064103 | 59 | 189 | 0.0 | 0.0 | 0.00 | 0.00 | 0.00 | 94 | 1013.0 |
| 20260510063603 | 59 | 189 | 0.0 | 0.0 | 0.00 | 0.00 | 0.00 | 94 | 1013.0 |
| 20260510063103 | 59 | 189 | 0.0 | 0.0 | 0.00 | 0.00 | 0.00 | 94 | 1013.0 |
| 20260510062604 | 60 | 189 | 0.0 | 0.0 | 0.00 | 0.00 | 0.00 | 94 | 1013.2 |
| 20260510062103 | 60 | 189 | 0.0 | 0.0 | 0.00 | 0.00 | 0.00 | 94 | 1013.2 |
| 20260510061603 | 60 | 189 | 0.0 | 0.0 | 0.00 | 0.00 | 0.00 | 94 | 1013.2 |
| 20260510061104 | 60 | 189 | 0.0 | 0.0 | 0.00 | 0.00 | 0.00 | 94 | 1013.2 |
| 20260510060603 | 60 | 189 | 0.0 | 0.0 | 0.00 | 0.00 | 0.00 | 93 | 1013.3 |
| 20260510055103 | 60 | 189 | 0.0 | 0.0 | 0.00 | 0.00 | 0.00 | 94 | 1013.3 |
| 20260510054604 | 60 | 189 | 0.0 | 0.0 | 0.00 | 0.00 | 0.00 | 93 | 1013.3 |
| 20260510054103 | 60 | 189 | 0.0 | 0.0 | 0.00 | 0.00 | 0.00 | 93 | 1013.3 |
| 20260510053603 | 60 | 189 | 0.0 | 0.0 | 0.00 | 0.00 | 0.00 | 93 | 1013.3 |
| 20260510052603 | 60 | 189 | 0.0 | 0.0 | 0.00 | 0.00 | 0.00 | 93 | 1013.3 |
| 20260510052103 | 60 | 189 | 0.0 | 0.0 | 0.00 | 0.00 | 0.00 | 93 | 1013.4 |
| 20260510051112 | 61 | 189 | 0.0 | 0.0 | 0.00 | 0.00 | 0.00 | 93 | 1013.3 |
| 20260510050604 | 61 | 189 | 0.0 | 0.0 | 0.00 | 0.00 | 0.00 | 92 | 1013.2 |
| 20260510050103 | 61 | 189 | 0.0 | 0.0 | 0.00 | 0.00 | 0.00 | 92 | 1013.3 |
| 20260510045604 | 61 | 189 | 0.0 | 0.0 | 0.00 | 0.00 | 0.00 | 92 | 1013.3 |
| 20260510045104 | 61 | 189 | 0.0 | 0.0 | 0.00 | 0.00 | 0.00 | 92 | 1013.3 |
| 20260510044604 | 61 | 189 | 0.0 | 0.0 | 0.00 | 0.00 | 0.00 | 92 | 1013.3 |
| 20260510044103 | 61 | 189 | 0.0 | 0.0 | 0.00 | 0.00 | 0.00 | 92 | 1013.4 |
| 20260510043603 | 61 | 189 | 0.0 | 0.0 | 0.00 | 0.00 | 0.00 | 92 | 1013.4 |
| 20260510043103 | 62 | 189 | 0.0 | 0.0 | 0.00 | 0.00 | 0.00 | 92 | 1013.5 |
| 20260510042604 | 62 | 189 | 0.0 | 0.0 | 0.00 | 0.00 | 0.00 | 92 | 1013.5 |
| 20260510042103 | 62 | 189 | 0.0 | 0.0 | 0.00 | 0.00 | 0.00 | 91 | 1013.5 |
| 20260510041603 | 62 | 189 | 0.0 | 0.0 | 0.00 | 0.00 | 0.00 | 91 | 1013.5 |
| 20260510041103 | 62 | 189 | 0.0 | 0.0 | 0.00 | 0.00 | 0.00 | 91 | 1013.5 |
| 20260510040604 | 62 | 189 | 0.0 | 0.0 | 0.00 | 0.00 | 0.00 | 91 | 1013.5 |
| 20260510040104 | 62 | 189 | 0.0 | 0.0 | 0.00 | 0.00 | 0.00 | 90 | 1013.5 |
| 20260510035603 | 62 | 189 | 0.0 | 0.0 | 0.00 | 0.00 | 0.00 | 90 | 1013.5 |
| 20260510034604 | 63 | 189 | 0.0 | 0.0 | 0.00 | 0.00 | 0.00 | 90 | 1013.5 |
| 20260510034103 | 63 | 189 | 0.0 | 0.0 | 0.00 | 0.00 | 0.00 | 90 | 1013.5 |
| 20260510033604 | 63 | 189 | 0.0 | 0.0 | 0.00 | 0.00 | 0.00 | 89 | 1013.5 |
| 20260510033104 | 63 | 189 | 0.0 | 0.0 | 0.00 | 0.00 | 0.00 | 89 | 1013.6 |
| 20260510032604 | 63 | 189 | 0.0 | 0.0 | 0.00 | 0.00 | 0.00 | 89 | 1013.6 |
| 20260510032103 | 63 | 189 | 0.0 | 0.0 | 0.00 | 0.00 | 0.00 | 88 | 1013.6 |
| 20260510031603 | 64 | 189 | 0.0 | 0.0 | 0.00 | 0.00 | 0.00 | 88 | 1013.5 |
| 20260510031104 | 64 | 189 | 0.0 | 0.0 | 0.00 | 0.00 | 0.00 | 88 | 1013.4 |
| 20260510030604 | 64 | 189 | 0.0 | 0.0 | 0.00 | 0.00 | 0.00 | 88 | 1013.4 |
| 20260510030103 | 64 | 189 | 0.0 | 0.0 | 0.00 | 0.00 | 0.00 | 87 | 1013.3 |
| 20260510025604 | 64 | 189 | 0.0 | 0.0 | 0.00 | 0.00 | 0.00 | 87 | 1013.3 |
| 20260510024103 | 65 | 189 | 0.0 | 0.0 | 0.00 | 0.00 | 0.00 | 86 | 1013.1 |
| 20260510023103 | 65 | 189 | 0.0 | 0.0 | 0.00 | 0.00 | 0.00 | 85 | 1012.9 |
| 20260510022604 | 65 | 189 | 0.0 | 0.0 | 0.00 | 0.00 | 0.00 | 84 | 1012.9 |
| 20260510022103 | 66 | 189 | 0.0 | 0.0 | 0.00 | 0.00 | 0.00 | 84 | 1012.8 |
| 20260510021604 | 66 | 189 | 0.0 | 0.0 | 0.00 | 0.00 | 0.00 | 84 | 1012.8 |
| 20260510020604 | 66 | 189 | 0.0 | 0.0 | 0.00 | 0.00 | 0.00 | 82 | 1012.6 |
| 20260510015604 | 67 | 189 | 0.0 | 0.0 | 0.00 | 0.00 | 0.00 | 81 | 1012.2 |
| 20260510015103 | 67 | 189 | 0.0 | 0.0 | 0.00 | 0.00 | 0.00 | 80 | 1012.1 |
| 20260510014603 | 67 | 189 | 0.0 | 0.0 | 0.00 | 0.00 | 0.00 | 80 | 1012.0 |
| 20260510014103 | 68 | 189 | 0.0 | 0.0 | 0.00 | 0.00 | 0.00 | 80 | 1012.0 |
| 20260510012604 | 68 | 189 | 0.0 | 0.0 | 0.00 | 0.00 | 0.00 | 78 | 1011.7 |
| 20260510011603 | 69 | 189 | 0.0 | 0.0 | 0.00 | 0.00 | 0.00 | 77 | 1011.7 |
| 20260510010603 | 70 | 189 | 0.0 | 0.0 | 0.00 | 0.00 | 0.00 | 76 | 1011.6 |
| 20260510010104 | 70 | 189 | 0.0 | 0.0 | 0.00 | 0.00 | 0.00 | 75 | 1011.6 |
| 20260510005603 | 70 | 189 | 0.0 | 0.0 | 0.00 | 0.00 | 0.00 | 75 | 1011.5 |
| 20260510005103 | 70 | 189 | 0.0 | 0.0 | 0.00 | 0.00 | 0.00 | 74 | 1011.5 |
| 20260510004603 | 71 | 189 | 0.0 | 0.0 | 0.00 | 0.00 | 0.00 | 73 | 1011.3 |
| 20260510004103 | 71 | 189 | 0.0 | 0.0 | 0.00 | 0.00 | 0.00 | 73 | 1011.2 |
| 20260510003603 | 71 | 189 | 0.0 | 0.0 | 0.00 | 0.00 | 0.00 | 72 | 1011.2 |
| 20260510003104 | 71 | 189 | 0.0 | 0.0 | 0.00 | 0.00 | 0.00 | 72 | 1011.0 |
| 20260510002103 | 72 | 189 | 0.0 | 1.0 | 0.00 | 0.00 | 0.00 | 70 | 1011.0 |
| 20260510001103 | 72 | 189 | 0.0 | 1.0 | 0.00 | 0.00 | 0.00 | 70 | 1010.9 |
| 20260510000604 | 72 | 189 | 0.0 | 1.0 | 0.00 | 0.00 | 0.00 | 70 | 1010.7 |
| 20260510000103 | 73 | 189 | 0.0 | 1.0 | 0.00 | 0.00 | 0.00 | 69 | 1010.8 |
| 20260509235104 | 73 | 189 | 0.0 | 1.0 | 0.00 | 0.00 | 0.00 | 68 | 1010.7 |
| 20260509234604 | 73 | 189 | 0.0 | 0.0 | 0.00 | 0.00 | 0.00 | 69 | 1010.7 |
| 20260509233104 | 74 | 189 | 0.0 | 0.0 | 0.00 | 0.00 | 0.00 | 69 | 1010.4 |
| 20260509232104 | 74 | 189 | 0.0 | 3.0 | 0.00 | 0.00 | 0.00 | 68 | 1010.5 |
| 20260509231603 | 74 | 237 | 0.0 | 1.0 | 0.00 | 0.00 | 0.00 | 67 | 1010.7 |